| time (UTC) | temp F | wind direction | speed knots | gust knots | rain 1hr in | rain 24hr in | rain mn in | humidity % | barometer mb |
| 20260504004553 | 50 | 252 | 0.0 | 0.9 | 0.00 | 0.00 | 0.00 | 58 | 1013.8 |
| 20260504003101 | 51 | 252 | 0.0 | 0.0 | 0.00 | 0.00 | 0.00 | 52 | 1013.6 |
| 20260504001605 | 52 | 252 | 0.0 | 0.9 | 0.00 | 0.00 | 0.00 | 48 | 1013.3 |
| 20260504000106 | 54 | 259 | 0.0 | 0.0 | 0.00 | 0.00 | 0.00 | 47 | 1013.2 |
| 20260503234548 | 55 | 259 | 0.0 | 1.7 | 0.00 | 0.00 | 0.00 | 43 | 1013.0 |
| 20260503233048 | 56 | 259 | 0.0 | 0.9 | 0.00 | 0.00 | 0.00 | 41 | 1012.8 |
| 20260503231548 | 56 | 261 | 0.0 | 0.9 | 0.00 | 0.00 | 0.00 | 38 | 1012.8 |
| 20260503230055 | 57 | 233 | 0.9 | 5.2 | 0.00 | 0.00 | 0.00 | 37 | 1012.7 |
| 20260503224547 | 57 | 203 | 1.7 | 3.5 | 0.00 | 0.00 | 0.00 | 37 | 1012.7 |
| 20260503223046 | 58 | 270 | 0.9 | 4.3 | 0.00 | 0.00 | 0.00 | 35 | 1012.5 |
| 20260503221552 | 58 | 271 | 1.7 | 7.0 | 0.00 | 0.00 | 0.00 | 36 | 1012.5 |
| 20260503220045 | 58 | 284 | 1.7 | 8.7 | 0.00 | 0.00 | 0.00 | 35 | 1012.6 |
| 20260503214544 | 59 | 266 | 3.5 | 7.0 | 0.00 | 0.00 | 0.00 | 32 | 1012.6 |
| 20260503213045 | 59 | 205 | 2.6 | 7.0 | 0.00 | 0.00 | 0.00 | 33 | 1012.5 |
| 20260503211542 | 60 | 242 | 2.6 | 7.8 | 0.00 | 0.00 | 0.00 | 33 | 1012.4 |
| 20260503210044 | 59 | 253 | 2.6 | 8.7 | 0.00 | 0.00 | 0.00 | 34 | 1012.5 |
| 20260503204543 | 60 | 355 | 3.5 | 9.6 | 0.00 | 0.00 | 0.00 | 32 | 1012.3 |
| 20260503203041 | 59 | 248 | 2.6 | 7.8 | 0.00 | 0.00 | 0.00 | 34 | 1012.3 |
| 20260503201539 | 60 | 182 | 3.5 | 9.6 | 0.00 | 0.00 | 0.00 | 34 | 1012.5 |
| 20260503200038 | 60 | 232 | 2.6 | 7.0 | 0.00 | 0.00 | 0.00 | 35 | 1012.4 |
| 20260503194535 | 59 | 262 | 2.6 | 7.0 | 0.00 | 0.00 | 0.00 | 36 | 1012.5 |
| 20260503193040 | 59 | 217 | 3.5 | 9.6 | 0.00 | 0.00 | 0.00 | 35 | 1012.8 |
| 20260503191531 | 58 | 263 | 3.5 | 8.7 | 0.00 | 0.00 | 0.00 | 36 | 1013.0 |
| 20260503190028 | 57 | 223 | 1.7 | 8.7 | 0.00 | 0.00 | 0.00 | 41 | 1013.1 |
| 20260503184527 | 56 | 259 | 2.6 | 11.3 | 0.00 | 0.00 | 0.00 | 41 | 1013.2 |
| 20260503183022 | 56 | 273 | 1.7 | 6.1 | 0.00 | 0.00 | 0.00 | 42 | 1013.4 |
| 20260503181521 | 57 | 302 | 3.5 | 11.3 | 0.00 | 0.00 | 0.00 | 39 | 1013.3 |
| 20260503180020 | 55 | 261 | 1.7 | 9.6 | 0.00 | 0.00 | 0.00 | 43 | 1013.5 |
| 20260503174524 | 54 | 232 | 2.6 | 8.7 | 0.00 | 0.00 | 0.00 | 44 | 1013.5 |
| 20260503173023 | 55 | 261 | 1.7 | 7.0 | 0.00 | 0.00 | 0.00 | 42 | 1013.5 |
| 20260503171523 | 55 | 331 | 3.5 | 15.6 | 0.00 | 0.00 | 0.00 | 40 | 1013.4 |
| 20260503120144 | 45 | 5 | 0.9 | 5.2 | 0.00 | 0.00 | 0.00 | 61 | 1013.6 |
| 20260503081521 | 44 | 293 | 0.0 | 1.7 | 0.00 | 0.00 | 0.00 | 63 | 1011.2 |
| 20260503071511 | 46 | 307 | 0.0 | 3.5 | 0.00 | 0.00 | 0.00 | 60 | 1011.1 |
| 20260503060122 | 48 | 324 | 0.0 | 2.6 | 0.00 | 0.00 | 0.00 | 56 | 1011.4 |
| 20260503054601 | 48 | 340 | 0.9 | 2.6 | 0.00 | 0.00 | 0.00 | 55 | 1011.7 |
| 20260503053055 | 49 | 286 | 0.9 | 3.5 | 0.00 | 0.00 | 0.00 | 55 | 1011.6 |
| 20260503051555 | 49 | 286 | 0.9 | 4.3 | 0.00 | 0.00 | 0.00 | 54 | 1011.7 |
| 20260503050052 | 49 | 283 | 0.0 | 1.7 | 0.00 | 0.00 | 0.00 | 55 | 1011.7 |
| 20260503044547 | 49 | 275 | 0.0 | 2.6 | 0.00 | 0.00 | 0.00 | 55 | 1012.0 |
| 20260503043047 | 49 | 293 | 0.9 | 2.6 | 0.00 | 0.00 | 0.00 | 54 | 1012.1 |
| 20260503041545 | 50 | 14 | 0.0 | 3.5 | 0.00 | 0.00 | 0.00 | 55 | 1012.1 |
| 20260503040048 | 49 | 329 | 1.7 | 5.2 | 0.00 | 0.00 | 0.00 | 55 | 1012.0 |
| 20260503034541 | 49 | 284 | 0.9 | 4.3 | 0.00 | 0.00 | 0.00 | 59 | 1012.0 |
| 20260503033047 | 49 | 320 | 0.0 | 2.6 | 0.00 | 0.00 | 0.00 | 60 | 1012.0 |
| 20260503031541 | 49 | 298 | 0.0 | 0.9 | 0.00 | 0.00 | 0.00 | 61 | 1012.0 |
| 20260503030040 | 49 | 298 | 0.0 | 0.9 | 0.00 | 0.00 | 0.00 | 62 | 1011.9 |
| 20260503024540 | 49 | 298 | 0.0 | 1.7 | 0.00 | 0.00 | 0.00 | 64 | 1012.1 |
| 20260503023040 | 49 | 298 | 0.0 | 0.0 | 0.00 | 0.00 | 0.00 | 64 | 1012.1 |
| 20260503021539 | 49 | 298 | 0.0 | 0.0 | 0.00 | 0.00 | 0.00 | 63 | 1012.2 |
| 20260503020039 | 49 | 298 | 0.0 | 0.0 | 0.00 | 0.00 | 0.00 | 63 | 1012.0 |
| 20260503014538 | 49 | 298 | 0.0 | 0.0 | 0.00 | 0.00 | 0.00 | 68 | 1012.1 |
| 20260503013048 | 49 | 298 | 0.0 | 0.9 | 0.00 | 0.00 | 0.00 | 63 | 1012.0 |
| 20260503011540 | 49 | 298 | 0.0 | 0.0 | 0.00 | 0.00 | 0.00 | 69 | 1012.2 |
| 20260503010047 | 49 | 298 | 0.0 | 0.0 | 0.00 | 0.00 | 0.00 | 64 | 1011.9 |